| time (UTC) | temp C | wind direction | speed KPH | gust KPH | rain 1hr cm | rain 24hr cm | rain mn cm | humidity % | barometer mb |
| 20260510065204 | 28 | 295 | 0.0 | 0.0 | 0.00 | 0.05 | 0.00 | 73 | 1006.6 |
| 20260510063704 | 28 | 295 | 0.0 | 0.0 | 0.00 | 0.05 | 0.00 | 73 | 1006.6 |
| 20260510063204 | 28 | 295 | 0.0 | 0.0 | 0.00 | 0.05 | 0.00 | 73 | 1006.6 |
| 20260510062703 | 28 | 295 | 0.0 | 0.0 | 0.00 | 0.05 | 0.00 | 73 | 1006.6 |
| 20260510062204 | 28 | 295 | 0.0 | 0.0 | 0.00 | 0.05 | 0.00 | 73 | 1006.6 |
| 20260510061703 | 28 | 295 | 0.0 | 0.0 | 0.00 | 0.05 | 0.00 | 73 | 1006.6 |
| 20260510061204 | 28 | 295 | 0.0 | 0.0 | 0.00 | 0.05 | 0.00 | 73 | 1006.6 |
| 20260510060204 | 28 | 295 | 0.0 | 0.0 | 0.00 | 0.05 | 0.00 | 73 | 1006.6 |
| 20260510055704 | 28 | 295 | 0.0 | 0.0 | 0.03 | 0.05 | 0.00 | 73 | 1006.6 |
| 20260510055204 | 28 | 295 | 0.0 | 0.0 | 0.03 | 0.05 | 0.00 | 73 | 1006.6 |
| 20260510054703 | 28 | 295 | 0.0 | 0.0 | 0.03 | 0.05 | 0.00 | 73 | 1006.6 |
| 20260510053704 | 28 | 295 | 0.0 | 0.0 | 0.03 | 0.05 | 0.00 | 73 | 1006.6 |
| 20260510053204 | 28 | 295 | 0.0 | 0.0 | 0.03 | 0.05 | 0.00 | 73 | 1006.6 |
| 20260510052204 | 28 | 295 | 0.0 | 0.0 | 0.03 | 0.05 | 0.00 | 73 | 1006.6 |
| 20260510051203 | 28 | 295 | 0.0 | 0.0 | 0.03 | 0.05 | 0.00 | 73 | 1006.6 |
| 20260510050704 | 28 | 295 | 0.0 | 0.0 | 0.03 | 0.05 | 0.00 | 73 | 1006.6 |
| 20260510045704 | 28 | 295 | 0.0 | 0.0 | 0.00 | 0.30 | 0.03 | 73 | 1006.6 |
| 20260510045204 | 28 | 295 | 0.0 | 0.0 | 0.00 | 0.30 | 0.03 | 73 | 1006.6 |
| 20260510044704 | 28 | 295 | 0.0 | 0.0 | 0.00 | 0.30 | 0.03 | 73 | 1006.6 |
| 20260510044205 | 28 | 295 | 0.0 | 0.0 | 0.00 | 0.30 | 0.03 | 73 | 1006.6 |
| 20260510043705 | 28 | 295 | 0.0 | 0.0 | 0.00 | 0.30 | 0.03 | 73 | 1006.6 |
| 20260510043204 | 28 | 295 | 0.0 | 0.0 | 0.00 | 0.30 | 0.03 | 73 | 1006.6 |
| 20260510042204 | 28 | 295 | 0.0 | 0.0 | 0.00 | 0.30 | 0.03 | 73 | 1006.6 |
| 20260510041704 | 28 | 295 | 0.0 | 0.0 | 0.00 | 0.30 | 0.03 | 73 | 1006.6 |
| 20260510041204 | 28 | 295 | 0.0 | 0.0 | 0.00 | 0.30 | 0.03 | 73 | 1006.6 |
| 20260510040704 | 28 | 295 | 0.0 | 0.0 | 0.00 | 0.30 | 0.03 | 73 | 1006.6 |
| 20260510040204 | 28 | 295 | 0.0 | 0.0 | 0.00 | 0.30 | 0.03 | 73 | 1006.6 |
| 20260510034704 | 28 | 295 | 0.0 | 0.0 | 0.00 | 0.30 | 0.03 | 73 | 1006.6 |
| 20260510034204 | 28 | 295 | 0.0 | 0.0 | 0.00 | 0.30 | 0.03 | 73 | 1006.6 |
| 20260510033204 | 28 | 295 | 0.0 | 0.0 | 0.00 | 0.30 | 0.03 | 73 | 1006.6 |
| 20260510032704 | 28 | 295 | 0.0 | 0.0 | 0.00 | 0.30 | 0.03 | 73 | 1006.6 |
| 20260510032204 | 28 | 295 | 0.0 | 0.0 | 0.00 | 0.30 | 0.03 | 73 | 1006.6 |
| 20260510031204 | 28 | 295 | 0.0 | 0.0 | 0.00 | 0.30 | 0.03 | 73 | 1006.6 |
| 20260510030704 | 28 | 295 | 0.0 | 0.0 | 0.00 | 0.30 | 0.03 | 73 | 1006.6 |
| 20260510030204 | 28 | 295 | 0.0 | 0.0 | 0.00 | 0.30 | 0.03 | 73 | 1006.6 |
| 20260510025704 | 28 | 295 | 0.0 | 0.0 | 0.00 | 0.30 | 0.03 | 73 | 1006.6 |
| 20260510025204 | 28 | 295 | 0.0 | 0.0 | 0.00 | 0.30 | 0.03 | 73 | 1006.6 |
| 20260510024704 | 28 | 295 | 0.0 | 0.0 | 0.00 | 0.30 | 0.03 | 73 | 1006.6 |
| 20260510023704 | 28 | 295 | 0.0 | 0.0 | 0.00 | 0.30 | 0.03 | 73 | 1006.6 |
| 20260510023204 | 28 | 295 | 0.0 | 0.0 | 0.00 | 0.30 | 0.03 | 73 | 1006.6 |
| 20260510022704 | 28 | 295 | 0.0 | 0.0 | 0.00 | 0.30 | 0.03 | 73 | 1006.6 |
| 20260510022204 | 28 | 295 | 0.0 | 0.0 | 0.00 | 0.30 | 0.03 | 73 | 1006.6 |
| 20260510021704 | 28 | 295 | 0.0 | 0.0 | 0.00 | 0.30 | 0.03 | 73 | 1006.6 |
| 20260510021204 | 28 | 295 | 0.0 | 0.0 | 0.00 | 0.30 | 0.03 | 73 | 1006.6 |
| 20260510020704 | 28 | 295 | 0.0 | 0.0 | 0.00 | 0.30 | 0.03 | 73 | 1006.6 |
| 20260510020204 | 28 | 295 | 0.0 | 0.0 | 0.00 | 0.30 | 0.03 | 73 | 1006.6 |
| 20260510015204 | 28 | 295 | 0.0 | 0.0 | 0.00 | 0.30 | 0.03 | 73 | 1006.6 |
| 20260510014704 | 28 | 295 | 0.0 | 0.0 | 0.00 | 0.30 | 0.03 | 73 | 1006.6 |
| 20260510014204 | 28 | 295 | 0.0 | 0.0 | 0.00 | 0.30 | 0.03 | 73 | 1006.6 |
| 20260510013704 | 28 | 295 | 0.0 | 0.0 | 0.00 | 0.30 | 0.03 | 73 | 1006.6 |
| 20260510013205 | 28 | 295 | 0.0 | 0.0 | 0.00 | 0.30 | 0.03 | 73 | 1006.6 |
| 20260510012704 | 28 | 295 | 0.0 | 0.0 | 0.00 | 0.30 | 0.03 | 73 | 1006.6 |
| 20260510011704 | 28 | 295 | 0.0 | 0.0 | 0.00 | 0.30 | 0.03 | 73 | 1006.6 |
| 20260510011204 | 28 | 295 | 0.0 | 0.0 | 0.00 | 0.30 | 0.03 | 73 | 1006.6 |
| 20260510010704 | 28 | 295 | 0.0 | 0.0 | 0.03 | 0.30 | 0.03 | 73 | 1006.6 |
| 20260510010204 | 28 | 295 | 0.0 | 0.0 | 0.03 | 0.30 | 0.03 | 73 | 1006.6 |
| 20260510005704 | 28 | 295 | 0.0 | 0.0 | 0.03 | 0.30 | 0.03 | 73 | 1006.6 |
| 20260510004704 | 28 | 295 | 0.0 | 0.0 | 0.03 | 0.30 | 0.03 | 73 | 1006.6 |
| 20260510004204 | 28 | 295 | 0.0 | 0.0 | 0.03 | 0.30 | 0.03 | 73 | 1006.6 |
| 20260510003704 | 28 | 295 | 0.0 | 0.0 | 0.03 | 0.30 | 0.03 | 73 | 1006.6 |
| 20260510003204 | 28 | 295 | 0.0 | 0.0 | 0.03 | 0.30 | 0.03 | 73 | 1006.6 |
| 20260510002704 | 28 | 295 | 0.0 | 0.0 | 0.03 | 0.30 | 0.03 | 73 | 1006.6 |
| 20260510002204 | 28 | 295 | 0.0 | 0.0 | 0.03 | 0.30 | 0.03 | 73 | 1006.6 |
| 20260510001704 | 28 | 294 | 0.0 | 1.6 | 0.03 | 0.30 | 0.03 | 72 | 1006.5 |
| 20260510001204 | 29 | 288 | 0.0 | 1.6 | 0.03 | 0.30 | 0.03 | 72 | 1006.1 |
| 20260510000704 | 30 | 292 | 0.0 | 1.6 | 0.00 | 0.30 | 0.00 | 71 | 1006.3 |
| 20260510000204 | 30 | 286 | 0.0 | 3.2 | 0.00 | 0.30 | 0.00 | 70 | 1006.5 |
| 20260509235704 | 30 | 278 | 0.0 | 3.2 | 0.00 | 0.30 | 0.00 | 66 | 1006.3 |
| 20260509235204 | 31 | 30 | 0.0 | 3.2 | 0.00 | 0.30 | 0.00 | 62 | 1006.1 |
| 20260509234704 | 31 | 356 | 0.0 | 3.2 | 0.00 | 0.30 | 0.00 | 59 | 1006.0 |
| 20260509233704 | 31 | 286 | 0.0 | 1.6 | 0.00 | 0.30 | 0.00 | 60 | 1005.8 |
| 20260509233205 | 31 | 302 | 0.0 | 1.6 | 0.00 | 0.30 | 0.00 | 59 | 1006.0 |
| 20260509232704 | 31 | 284 | 0.0 | 3.2 | 0.00 | 0.30 | 0.00 | 58 | 1006.0 |
| 20260509232204 | 31 | 350 | 0.0 | 3.2 | 0.00 | 0.30 | 0.00 | 57 | 1006.0 |
| 20260509231704 | 31 | 294 | 0.0 | 3.2 | 0.00 | 0.30 | 0.00 | 56 | 1006.0 |
| 20260509231204 | 31 | 314 | 0.0 | 1.6 | 0.00 | 0.30 | 0.00 | 57 | 1005.9 |
| 20260509230704 | 31 | 323 | 0.0 | 1.6 | 0.00 | 0.30 | 0.00 | 58 | 1005.9 |
| 20260509230204 | 31 | 278 | 0.0 | 1.6 | 0.00 | 0.30 | 0.00 | 58 | 1005.8 |
| 20260509225704 | 31 | 280 | 0.0 | 1.6 | 0.00 | 0.30 | 0.00 | 58 | 1005.8 |
| 20260509225204 | 32 | 279 | 1.6 | 1.6 | 0.00 | 0.30 | 0.00 | 58 | 1005.7 |
| 20260509224704 | 32 | 285 | 1.6 | 3.2 | 0.00 | 0.30 | 0.00 | 57 | 1005.7 |
| 20260509223704 | 32 | 343 | 1.6 | 3.2 | 0.00 | 0.30 | 0.00 | 59 | 1005.6 |
| 20260509223204 | 32 | 117 | 1.6 | 3.2 | 0.00 | 0.30 | 0.00 | 56 | 1005.6 |
| 20260509222704 | 32 | 31 | 0.0 | 1.6 | 0.00 | 0.30 | 0.00 | 57 | 1005.5 |
| 20260509222205 | 32 | 288 | 1.6 | 3.2 | 0.00 | 0.30 | 0.00 | 60 | 1005.5 |
| 20260509221204 | 32 | 301 | 0.0 | 3.2 | 0.00 | 0.30 | 0.00 | 58 | 1005.5 |
| 20260509220704 | 32 | 268 | 1.6 | 3.2 | 0.00 | 0.30 | 0.00 | 57 | 1005.6 |
| 20260509220204 | 32 | 287 | 0.0 | 3.2 | 0.00 | 0.30 | 0.00 | 58 | 1005.5 |
| 20260509215204 | 32 | 252 | 1.6 | 3.2 | 0.00 | 0.30 | 0.00 | 56 | 1005.5 |
| 20260509214703 | 32 | 257 | 0.0 | 1.6 | 0.00 | 0.30 | 0.00 | 58 | 1005.6 |
| 20260509214203 | 33 | 291 | 0.0 | 3.2 | 0.00 | 0.30 | 0.00 | 55 | 1005.5 |
| 20260509211704 | 33 | 249 | 1.6 | 3.2 | 0.00 | 0.30 | 0.00 | 56 | 1005.5 |
| 20260509211204 | 34 | 309 | 0.0 | 1.6 | 0.00 | 0.30 | 0.00 | 57 | 1005.6 |
| 20260509210704 | 34 | 290 | 0.0 | 1.6 | 0.00 | 0.30 | 0.00 | 56 | 1005.6 |
| 20260509210204 | 34 | 356 | 0.0 | 3.2 | 0.00 | 0.30 | 0.00 | 55 | 1005.7 |
| 20260509205705 | 34 | 286 | 1.6 | 3.2 | 0.00 | 0.30 | 0.00 | 57 | 1005.8 |
| 20260509205204 | 34 | 296 | 0.0 | 1.6 | 0.00 | 0.30 | 0.00 | 56 | 1005.9 |
| 20260509204704 | 34 | 42 | 1.6 | 3.2 | 0.00 | 0.30 | 0.00 | 55 | 1005.9 |
| 20260509204204 | 33 | 304 | 0.0 | 3.2 | 0.00 | 0.30 | 0.00 | 58 | 1005.9 |
| 20260509203704 | 33 | 257 | 1.6 | 3.2 | 0.00 | 0.30 | 0.00 | 57 | 1006.0 |
| 20260509202704 | 34 | 291 | 1.6 | 4.8 | 0.00 | 0.30 | 0.00 | 56 | 1006.1 |
| 20260509202204 | 33 | 3 | 0.0 | 4.8 | 0.00 | 0.30 | 0.00 | 58 | 1006.1 |
| 20260509201704 | 33 | 312 | 0.0 | 3.2 | 0.00 | 0.30 | 0.00 | 58 | 1006.1 |
| 20260509201204 | 33 | 268 | 1.6 | 3.2 | 0.00 | 0.30 | 0.00 | 57 | 1006.2 |
| 20260509200704 | 33 | 312 | 1.6 | 3.2 | 0.00 | 0.30 | 0.00 | 58 | 1006.2 |
| 20260509195703 | 33 | 312 | 1.6 | 3.2 | 0.00 | 0.30 | 0.00 | 57 | 1006.3 |
| 20260509195203 | 33 | 35 | 0.0 | 3.2 | 0.00 | 0.30 | 0.00 | 58 | 1006.3 |
| 20260509194705 | 33 | 333 | 1.6 | 3.2 | 0.00 | 0.30 | 0.00 | 57 | 1006.4 |
| 20260509194204 | 33 | 260 | 1.6 | 3.2 | 0.00 | 0.30 | 0.00 | 55 | 1006.5 |
| 20260509193705 | 33 | 271 | 1.6 | 3.2 | 0.00 | 0.30 | 0.00 | 55 | 1006.5 |
| 20260509193204 | 33 | 303 | 1.6 | 3.2 | 0.00 | 0.30 | 0.00 | 54 | 1006.5 |
| 20260509192705 | 33 | 189 | 0.0 | 3.2 | 0.00 | 0.30 | 0.00 | 57 | 1006.5 |
| 20260509192204 | 33 | 285 | 0.0 | 3.2 | 0.00 | 0.30 | 0.00 | 58 | 1006.7 |
| 20260509191704 | 32 | 296 | 0.0 | 3.2 | 0.00 | 0.30 | 0.00 | 61 | 1006.7 |
| 20260509191204 | 32 | 316 | 1.6 | 3.2 | 0.00 | 0.30 | 0.00 | 60 | 1006.8 |
| 20260509190704 | 32 | 327 | 0.0 | 3.2 | 0.00 | 0.30 | 0.00 | 60 | 1006.6 |
| 20260509190204 | 32 | 297 | 1.6 | 4.8 | 0.00 | 0.30 | 0.00 | 57 | 1006.7 |
| 20260509184704 | 32 | 281 | 0.0 | 3.2 | 0.00 | 0.30 | 0.00 | 62 | 1007.0 |
| 20260509183703 | 31 | 266 | 1.6 | 3.2 | 0.00 | 0.30 | 0.00 | 65 | 1007.1 |
| 20260509183204 | 31 | 333 | 1.6 | 3.2 | 0.00 | 0.30 | 0.00 | 65 | 1007.1 |
| 20260509182703 | 31 | 249 | 1.6 | 3.2 | 0.00 | 0.30 | 0.00 | 62 | 1007.2 |
| 20260509182204 | 31 | 222 | 1.6 | 3.2 | 0.00 | 0.33 | 0.00 | 66 | 1007.3 |
| 20260509181705 | 31 | 207 | 1.6 | 4.8 | 0.00 | 0.33 | 0.00 | 67 | 1007.5 |
| 20260509181204 | 31 | 25 | 1.6 | 4.8 | 0.00 | 0.33 | 0.00 | 66 | 1007.7 |
| 20260509180204 | 31 | 296 | 1.6 | 4.8 | 0.00 | 0.38 | 0.00 | 70 | 1007.9 |
| 20260509175704 | 30 | 239 | 1.6 | 3.2 | 0.00 | 0.38 | 0.00 | 72 | 1008.0 |
| 20260509175204 | 30 | 268 | 1.6 | 4.8 | 0.00 | 0.38 | 0.00 | 72 | 1008.1 |
| 20260509174704 | 30 | 328 | 1.6 | 4.8 | 0.00 | 0.38 | 0.00 | 74 | 1008.0 |
| 20260509174204 | 30 | 273 | 1.6 | 1.6 | 0.00 | 0.38 | 0.00 | 74 | 1008.0 |
| 20260509173704 | 30 | 359 | 0.0 | 1.6 | 0.00 | 0.38 | 0.00 | 75 | 1008.3 |
| 20260509172704 | 29 | 297 | 1.6 | 3.2 | 0.00 | 0.38 | 0.00 | 77 | 1008.4 |
| 20260509171704 | 28 | 341 | 0.0 | 1.6 | 0.00 | 0.38 | 0.00 | 79 | 1008.7 |
| 20260509171204 | 28 | 294 | 1.6 | 1.6 | 0.00 | 0.38 | 0.00 | 81 | 1008.7 |
| 20260509170204 | 28 | 304 | 0.0 | 1.6 | 0.00 | 0.38 | 0.00 | 81 | 1008.7 |
| 20260509165704 | 28 | 297 | 0.0 | 1.6 | 0.00 | 0.38 | 0.00 | 80 | 1008.7 |
| 20260509165204 | 28 | 305 | 0.0 | 1.6 | 0.00 | 0.38 | 0.00 | 79 | 1008.8 |
| 20260509164704 | 28 | 292 | 0.0 | 1.6 | 0.00 | 0.38 | 0.00 | 81 | 1008.8 |
| 20260509164204 | 28 | 290 | 1.6 | 1.6 | 0.00 | 0.38 | 0.00 | 80 | 1008.7 |
| 20260509163704 | 28 | 334 | 0.0 | 1.6 | 0.00 | 0.41 | 0.00 | 81 | 1008.7 |
| 20260509163205 | 28 | 316 | 0.0 | 1.6 | 0.00 | 0.41 | 0.00 | 80 | 1008.6 |
| 20260509162703 | 28 | 270 | 0.0 | 1.6 | 0.00 | 0.41 | 0.00 | 81 | 1008.6 |
| 20260509161704 | 27 | 320 | 0.0 | 0.0 | 0.00 | 0.43 | 0.00 | 83 | 1008.6 |
| 20260509161204 | 27 | 287 | 0.0 | 1.6 | 0.00 | 0.43 | 0.00 | 83 | 1008.6 |
| 20260509160204 | 27 | 302 | 0.0 | 1.6 | 0.00 | 0.43 | 0.00 | 85 | 1008.7 |
| 20260509155704 | 27 | 308 | 0.0 | 1.6 | 0.00 | 0.43 | 0.00 | 84 | 1008.6 |
| 20260509155204 | 27 | 317 | 0.0 | 1.6 | 0.00 | 0.43 | 0.00 | 84 | 1008.6 |
| 20260509154703 | 27 | 264 | 0.0 | 1.6 | 0.00 | 0.43 | 0.00 | 85 | 1008.4 |
| 20260509154204 | 27 | 140 | 0.0 | 0.0 | 0.00 | 0.43 | 0.00 | 85 | 1008.5 |
| 20260509153704 | 27 | 140 | 0.0 | 0.0 | 0.00 | 0.46 | 0.00 | 86 | 1008.6 |
| 20260509153204 | 26 | 140 | 0.0 | 0.0 | 0.00 | 0.48 | 0.00 | 87 | 1008.6 |
| 20260509152705 | 26 | 140 | 0.0 | 0.0 | 0.00 | 0.48 | 0.00 | 88 | 1008.5 |
| 20260509152204 | 26 | 144 | 0.0 | 1.6 | 0.00 | 0.51 | 0.00 | 88 | 1008.5 |
| 20260509151704 | 26 | 211 | 0.0 | 0.0 | 0.00 | 0.51 | 0.00 | 89 | 1008.5 |
| 20260509151203 | 26 | 211 | 0.0 | 0.0 | 0.00 | 0.53 | 0.00 | 90 | 1008.5 |
| 20260509150704 | 26 | 211 | 0.0 | 0.0 | 0.00 | 0.56 | 0.00 | 89 | 1008.5 |
| 20260509150203 | 26 | 191 | 0.0 | 0.0 | 0.00 | 0.56 | 0.00 | 90 | 1008.6 |
| 20260509145204 | 25 | 145 | 0.0 | 3.2 | 0.00 | 0.56 | 0.00 | 92 | 1008.5 |
| 20260509144704 | 25 | 162 | 0.0 | 3.2 | 0.00 | 0.56 | 0.00 | 92 | 1008.3 |
| 20260509144204 | 25 | 161 | 0.0 | 1.6 | 0.00 | 0.56 | 0.00 | 92 | 1008.2 |
| 20260509143705 | 25 | 252 | 0.0 | 1.6 | 0.00 | 0.56 | 0.00 | 92 | 1008.0 |
| 20260509143204 | 25 | 48 | 0.0 | 0.0 | 0.00 | 0.58 | 0.00 | 93 | 1008.1 |
| 20260509142705 | 25 | 79 | 0.0 | 1.6 | 0.00 | 0.61 | 0.00 | 93 | 1008.1 |
| 20260509142203 | 25 | 228 | 0.0 | 0.0 | 0.00 | 0.61 | 0.00 | 93 | 1008.1 |
| 20260509141704 | 25 | 228 | 0.0 | 1.6 | 0.00 | 0.61 | 0.00 | 93 | 1007.8 |
| 20260509141204 | 25 | 189 | 0.0 | 1.6 | 0.00 | 0.61 | 0.00 | 93 | 1007.8 |
| 20260509140706 | 25 | 177 | 0.0 | 0.0 | 0.00 | 0.61 | 0.00 | 94 | 1007.9 |
| 20260509140204 | 25 | 177 | 0.0 | 1.6 | 0.00 | 0.61 | 0.00 | 94 | 1007.9 |
| 20260509135704 | 25 | 117 | 0.0 | 1.6 | 0.00 | 0.61 | 0.00 | 94 | 1007.8 |
| 20260509134704 | 25 | 144 | 0.0 | 0.0 | 0.00 | 0.61 | 0.00 | 95 | 1008.0 |
| 20260509133705 | 25 | 127 | 0.0 | 1.6 | 0.00 | 0.61 | 0.00 | 97 | 1008.5 |
| 20260509133204 | 24 | 121 | 0.0 | 1.6 | 0.00 | 0.61 | 0.00 | 97 | 1008.7 |
| 20260509132204 | 24 | 50 | 0.0 | 1.6 | 0.00 | 0.61 | 0.00 | 98 | 1008.9 |
| 20260509131704 | 24 | 101 | 0.0 | 1.6 | 0.00 | 0.61 | 0.00 | 98 | 1008.8 |
| 20260509130706 | 24 | 103 | 0.0 | 1.6 | 0.00 | 0.61 | 0.00 | 99 | 1008.8 |
| 20260509130204 | 24 | 137 | 0.0 | 1.6 | 0.00 | 0.61 | 0.00 | 99 | 1008.7 |
| 20260509125704 | 23 | 114 | 0.0 | 0.0 | 0.00 | 0.61 | 0.00 | 99 | 1008.6 |
| 20260509124704 | 23 | 55 | 0.0 | 1.6 | 0.00 | 0.61 | 0.00 | 99 | 1008.5 |
| 20260509124204 | 23 | 156 | 0.0 | 1.6 | 0.00 | 0.61 | 0.00 | 99 | 1008.4 |
| 20260509123703 | 23 | 80 | 0.0 | 0.0 | 0.00 | 0.61 | 0.00 | 99 | 1008.5 |
| 20260509123204 | 23 | 137 | 0.0 | 1.6 | 0.00 | 0.61 | 0.00 | 99 | 1008.6 |
| 20260509122704 | 23 | 315 | 0.0 | 0.0 | 0.00 | 0.61 | 0.00 | 99 | 1008.4 |
| 20260509122204 | 23 | 315 | 0.0 | 0.0 | 0.00 | 0.61 | 0.00 | 99 | 1008.5 |
| 20260509121704 | 23 | 315 | 0.0 | 0.0 | 0.00 | 0.61 | 0.00 | 99 | 1008.5 |
| 20260509121204 | 23 | 315 | 0.0 | 0.0 | 0.00 | 0.61 | 0.00 | 99 | 1008.4 |
| 20260509120204 | 23 | 315 | 0.0 | 0.0 | 0.00 | 0.61 | 0.00 | 98 | 1008.1 |
| 20260509115706 | 23 | 315 | 0.0 | 0.0 | 0.00 | 0.61 | 0.00 | 99 | 1008.0 |
| 20260509115204 | 23 | 315 | 0.0 | 0.0 | 0.00 | 0.61 | 0.00 | 98 | 1008.0 |
| 20260509114704 | 23 | 315 | 0.0 | 0.0 | 0.00 | 0.61 | 0.00 | 98 | 1008.0 |
| 20260509114204 | 23 | 315 | 0.0 | 0.0 | 0.00 | 0.61 | 0.00 | 98 | 1008.4 |
| 20260509113704 | 23 | 347 | 0.0 | 0.0 | 0.00 | 0.61 | 0.00 | 98 | 1008.6 |
| 20260509113204 | 23 | 347 | 0.0 | 0.0 | 0.00 | 0.61 | 0.00 | 98 | 1008.6 |
| 20260509112704 | 23 | 347 | 0.0 | 0.0 | 0.00 | 0.61 | 0.00 | 98 | 1008.6 |
| 20260509112204 | 23 | 347 | 0.0 | 0.0 | 0.00 | 0.61 | 0.00 | 98 | 1008.5 |
| 20260509111704 | 23 | 347 | 0.0 | 0.0 | 0.00 | 0.61 | 0.00 | 98 | 1008.4 |
| 20260509111204 | 23 | 314 | 0.0 | 0.0 | 0.00 | 0.61 | 0.00 | 98 | 1008.2 |
| 20260509110705 | 23 | 337 | 0.0 | 0.0 | 0.00 | 0.61 | 0.00 | 98 | 1008.1 |
| 20260509110204 | 23 | 288 | 0.0 | 1.6 | 0.00 | 0.61 | 0.00 | 98 | 1007.9 |
| 20260509105705 | 23 | 183 | 0.0 | 1.6 | 0.00 | 0.61 | 0.00 | 98 | 1007.8 |
| 20260509105204 | 23 | 283 | 0.0 | 0.0 | 0.00 | 0.61 | 0.00 | 98 | 1007.8 |
| 20260509104704 | 23 | 283 | 0.0 | 0.0 | 0.00 | 0.61 | 0.00 | 98 | 1007.8 |
| 20260509104204 | 23 | 283 | 0.0 | 1.6 | 0.00 | 0.61 | 0.00 | 98 | 1007.7 |
| 20260509103703 | 23 | 341 | 0.0 | 0.0 | 0.00 | 0.61 | 0.00 | 98 | 1007.7 |
| 20260509103205 | 23 | 341 | 0.0 | 0.0 | 0.00 | 0.61 | 0.00 | 98 | 1007.7 |
| 20260509102703 | 23 | 341 | 0.0 | 0.0 | 0.00 | 0.61 | 0.00 | 98 | 1007.8 |
| 20260509102204 | 23 | 341 | 0.0 | 0.0 | 0.00 | 0.61 | 0.00 | 98 | 1007.7 |
| 20260509101703 | 23 | 39 | 0.0 | 1.6 | 0.00 | 0.61 | 0.00 | 98 | 1007.7 |
| 20260509101204 | 23 | 10 | 0.0 | 0.0 | 0.00 | 0.61 | 0.00 | 98 | 1007.6 |
| 20260509100704 | 23 | 10 | 0.0 | 1.6 | 0.00 | 0.61 | 0.00 | 98 | 1007.7 |
| 20260509095704 | 23 | 351 | 0.0 | 0.0 | 0.00 | 0.61 | 0.00 | 98 | 1007.7 |
| 20260509095204 | 23 | 351 | 0.0 | 0.0 | 0.00 | 0.61 | 0.00 | 98 | 1007.7 |
| 20260509094704 | 23 | 351 | 0.0 | 0.0 | 0.00 | 0.61 | 0.00 | 98 | 1007.6 |
| 20260509094204 | 23 | 351 | 0.0 | 0.0 | 0.00 | 0.61 | 0.00 | 98 | 1007.5 |
| 20260509093703 | 23 | 351 | 0.0 | 0.0 | 0.00 | 0.61 | 0.00 | 98 | 1007.5 |
| 20260509093204 | 23 | 351 | 0.0 | 0.0 | 0.00 | 0.61 | 0.00 | 98 | 1007.6 |
| 20260509092704 | 23 | 351 | 0.0 | 0.0 | 0.00 | 0.61 | 0.00 | 98 | 1007.5 |
| 20260509092203 | 23 | 351 | 0.0 | 0.0 | 0.00 | 0.61 | 0.00 | 98 | 1007.5 |
| 20260509091704 | 23 | 1 | 0.0 | 0.0 | 0.00 | 0.61 | 0.00 | 98 | 1007.6 |
| 20260509091204 | 23 | 1 | 0.0 | 0.0 | 0.00 | 0.61 | 0.00 | 97 | 1007.7 |
| 20260509090704 | 23 | 1 | 0.0 | 0.0 | 0.00 | 0.61 | 0.00 | 97 | 1007.7 |
| 20260509085704 | 23 | 1 | 0.0 | 0.0 | 0.00 | 0.61 | 0.00 | 97 | 1007.6 |
| 20260509085204 | 23 | 1 | 0.0 | 0.0 | 0.00 | 0.61 | 0.00 | 97 | 1007.5 |
| 20260509084703 | 23 | 1 | 0.0 | 0.0 | 0.00 | 0.61 | 0.00 | 97 | 1007.4 |
| 20260509084204 | 23 | 22 | 0.0 | 1.6 | 0.00 | 0.61 | 0.00 | 97 | 1007.3 |
| 20260509083704 | 23 | 93 | 0.0 | 1.6 | 0.00 | 0.61 | 0.00 | 97 | 1007.4 |
| 20260509083205 | 23 | 105 | 0.0 | 0.0 | 0.00 | 0.61 | 0.00 | 97 | 1007.4 |
| 20260509082704 | 23 | 103 | 0.0 | 0.0 | 0.00 | 0.61 | 0.00 | 97 | 1007.5 |
| 20260509082204 | 23 | 103 | 0.0 | 0.0 | 0.00 | 0.61 | 0.00 | 97 | 1007.7 |
| 20260509081704 | 23 | 103 | 0.0 | 0.0 | 0.00 | 0.61 | 0.00 | 97 | 1007.7 |
| 20260509081204 | 23 | 143 | 1.6 | 1.6 | 0.00 | 0.61 | 0.00 | 97 | 1007.6 |
| 20260509080704 | 23 | 175 | 0.0 | 0.0 | 0.00 | 0.61 | 0.00 | 97 | 1007.5 |
| 20260509080204 | 23 | 175 | 0.0 | 0.0 | 0.00 | 0.61 | 0.00 | 97 | 1007.5 |
| 20260509075706 | 23 | 175 | 0.0 | 1.6 | 0.00 | 0.61 | 0.00 | 97 | 1007.5 |
| 20260509074704 | 23 | 227 | 0.0 | 1.6 | 0.00 | 0.61 | 0.00 | 96 | 1007.6 |
| 20260509074204 | 23 | 293 | 0.0 | 0.0 | 0.00 | 0.61 | 0.00 | 96 | 1007.8 |
| 20260509073704 | 24 | 293 | 0.0 | 0.0 | 0.00 | 0.61 | 0.00 | 96 | 1008.0 |
| 20260509072205 | 24 | 175 | 0.0 | 0.0 | 0.00 | 0.61 | 0.00 | 96 | 1007.9 |
| 20260509071704 | 24 | 175 | 0.0 | 0.0 | 0.00 | 0.61 | 0.00 | 96 | 1008.1 |
| 20260509071204 | 24 | 175 | 0.0 | 0.0 | 0.00 | 0.61 | 0.00 | 96 | 1008.2 |
| 20260509070704 | 24 | 175 | 0.0 | 0.0 | 0.00 | 0.61 | 0.00 | 96 | 1008.2 |
| 20260509070203 | 24 | 175 | 0.0 | 1.6 | 0.00 | 0.61 | 0.00 | 96 | 1008.2 |